sat.trackr.live / text

‹ back to catalog

STARLINK-6109

NORAD 56094 · 2023-046B

PAYLOAD ACTIVE UNKNOWN

§ Identity

Operator
Country
US
Launch date
2023-03-29
Launch site
AFETR
Launch vehicle
Mass (kg)
RCS (m²)

Purposes: comms

External: N2YO · Heavens-Above · Gunter

§ Orbital elements

Epoch: 2026-09-20T22:23:58.605216Z

Period
94.27 min
Inclination
43.0015°
Eccentricity
0.0001335
Mean motion
15.27581420 rev/d
Perigee alt
482.1 km
Apogee alt
484.0 km
Semi-major
6,861.2 km
B*
3.6542e-5
RAAN
138.7446°
Arg perigee
248.4214°
Mean anomaly
111.6495°
Rev number
19,189

§ Raw data

STARLINK-61091 56094U 23046B   26263.93331719  .00000744  00000+0  36542-4 0  99922 56094  43.0015 138.7446 0001335 248.4214 111.6495 15.27581420191899

JSON: /api/v1/satellites/56094 · /tle

For live sub-satellite position, see the globe view (requires WebGL).

§ Visibility from observer

Set your observer location to see the next 7 days of passes ≥ 10°. The values pass through the URL so the page stays shareable.

No JS? Fill the form by hand. The geolocation button needs JavaScript.